Miscellaneous Local Product
Issued by NWS Hastings, NE

Home | Current Version | Previous Version | Graphics & Text | Print | Product List | Glossary On
Versions: 1 2 3 4 5 6 7 8 9 10 11 12 13 14 15 16 17 18 19 20 21 22 23 24 25 26 27 28 29 30 31 32 33 34 35 36 37 38 39 40 41 42 43 44 45 46 47 48 49 50
608
AXUS43 KGID 031302
MISGRI

GID CWA HOURLY WEATHER ROUNDUP
NATIONAL WEATHER SERVICE HASTINGS NE
700 AM CST SAT DEC 03 2016

NOTE: "FAIR" INDICATES FEW OR NO CLOUDS BELOW 12,000 FEET WITH NO
SIGNIFICANT WEATHER AND/OR OBSTRUCTIONS TO VISIBILITY.

...SOUTH CENTRAL NEBRASKA...

CITY           SKY/WX    TMP DP  RH WIND       PRES   REMARKS
GRAND ISLAND   PTCLDY    28  26  92 S3        30.21F
HASTINGS       MOCLDY    29  25  85 S6        30.22F WCI  23
KEARNEY        PTCLDY    27  19  74 CALM      30.19F
ORD            CLOUDY    27  22  81 CALM      30.18F
YORK           CLOUDY    27  27 100 CALM      30.23S
AURORA         CLOUDY    27  25  95 CALM      30.21F
LEXINGTON      CLOUDY    30  25  82 CALM      30.17F
HOLDREGE       PTCLDY    28  24  88 S3        30.18F
HEBRON         CLOUDY    27  25  91 CALM      30.25F

...NEBRASKA PANHANDLE...

CITY           SKY/WX    TMP DP  RH WIND       PRES   REMARKS
CHADRON        CLEAR     24  16  71 SW13      29.98F WCI  12
ALLIANCE       CLEAR     23  19  85 S10       30.01F WCI  12
SCOTTSBLUFF    CLEAR     17  13  84 E5        30.02F WCI  10
SIDNEY         CLEAR     22  18  85 S13       30.04F WCI  10

...WESTERN AND NORTH CENTRAL NEBRASKA...

CITY           SKY/WX    TMP DP  RH WIND       PRES   REMARKS
VALENTINE      CLOUDY    32  26  78 SW6       30.08F WCI  26
AINSWORTH      CLOUDY    32  27  82 S10       30.10F WCI  24
ONEILL         CLOUDY    28  26  92 S5        30.17S WCI  23
BROKEN BOW     CLOUDY    31  27  85 S3        30.15F
IMPERIAL       CLOUDY    30  23  75 S8        30.12F WCI  22
NORTH PLATTE   CLOUDY    31  25  78 S3        30.14F
MCCOOK         CLOUDY    27  22  81 CALM      30.16F

...EASTERN NEBRASKA...

CITY           SKY/WX    TMP DP  RH WIND       PRES   REMARKS
NORFOLK        CLOUDY    21  19  92 E5        30.22F WCI  15
SO SIOUX CITY  CLEAR     23  21  92 SE7       30.28F WCI  15
TEKAMAH        PTCLDY    22  20  92 S6        30.29S WCI  14
COLUMBUS       CLOUDY    21  18  86 CALM      30.24F
ALBION         CLOUDY    26  24  92 CALM      30.21F
OMAHA EPPLEY   CLOUDY    24  19  81 CALM      30.30F FOG
OFFUTT AFB     CLOUDY    23  23 100 NE2       30.28F
MILLARD        PTCLDY    24  23  93 CALM      30.29F
LINCOLN        CLOUDY    24  21  88 CALM      30.28F
NEBRASKA CITY  PTCLDY    27  26  99 CALM      30.28F FOG
BEATRICE       CLOUDY    27  25  93 CALM      30.26F
FALLS CITY       N/A    N/A N/A N/A MISG      30.29F

...NORTHERN KANSAS...

CITY           SKY/WX    TMP DP  RH WIND       PRES   REMARKS
GOODLAND       CLOUDY    21  14  74 S9        30.12S WCI  11
HILL CITY      CLOUDY    31  26  82 CALM      30.20F
NORTON         CLOUDY    28  21  74 CALM      30.18
PHILLIPSBURG   MIX PCPN  30  27  86 CALM      30.22S
SMITH CENTER   MIX PCPN  30  27  86 CALM      30.22F
BELOIT         CLOUDY    30  27  86 CALM      30.24S
HAYS           LGT SNOW  33  27  78 VRB3      30.21F
RUSSELL        CLOUDY    33  27  78 CALM      30.20F
CONCORDIA      CLOUDY    30  28  92 E5        30.24F WCI  25
SALINA         CLOUDY    37  28  70 CALM      30.25S
TOPEKA         CLOUDY    31  27  85 CALM      30.29R



USA.gov is the U.S. government's official web portal to all federal, state and local government web resources and services.